Year,Month,Day,Hour,Minute,Value (Times are PST for windgust in km/hr)
2008,10,04,00,00,8.10
2008,10,04,00,01,4.80
2008,10,04,00,02,4.80
2008,10,04,00,03,9.60
2008,10,04,00,04,9.60
2008,10,04,00,05,4.80
2008,10,04,00,06,6.40
2008,10,04,00,07,6.40
2008,10,04,00,08,6.40
2008,10,04,00,09,6.40
2008,10,04,00,10,1.60
2008,10,04,00,11,3.20
2008,10,04,00,12,3.20
2008,10,04,00,13,11.30
2008,10,04,00,14,6.40
2008,10,04,00,15,6.40
2008,10,04,00,16,6.40
2008,10,04,00,17,11.30
2008,10,04,00,18,6.40
2008,10,04,00,19,6.40
2008,10,04,00,20,4.80
2008,10,04,00,21,4.80
2008,10,04,00,22,3.20
2008,10,04,00,23,1.60
2008,10,04,00,24,3.20
2008,10,04,00,25,4.80
2008,10,04,00,26,3.20
2008,10,04,00,27,3.20
2008,10,04,00,28,1.60
2008,10,04,00,29,1.60
2008,10,04,00,30,3.20
2008,10,04,00,31,4.80
2008,10,04,00,32,3.20
2008,10,04,00,33,1.60
2008,10,04,00,34,4.80
2008,10,04,00,35,6.40
2008,10,04,00,36,8.10
2008,10,04,00,37,8.10
2008,10,04,00,38,6.40
2008,10,04,00,39,6.40
2008,10,04,00,40,4.80
2008,10,04,00,41,6.40
2008,10,04,00,42,6.40
2008,10,04,00,43,6.40
2008,10,04,00,44,8.10
2008,10,04,00,45,11.30
2008,10,04,00,46,6.40
2008,10,04,00,47,8.10
2008,10,04,00,48,8.10
2008,10,04,00,49,4.80
2008,10,04,00,50,3.20
2008,10,04,00,51,8.10
2008,10,04,00,52,6.40
2008,10,04,00,53,6.40
2008,10,04,00,54,6.40
2008,10,04,00,55,6.40
2008,10,04,00,56,6.40
2008,10,04,00,57,8.10
2008,10,04,00,58,8.10
2008,10,04,00,59,6.40
2008,10,04,01,00,8.10
2008,10,04,01,01,8.10
2008,10,04,01,02,8.10
2008,10,04,01,03,6.40
2008,10,04,01,04,3.20
2008,10,04,01,05,4.80
2008,10,04,01,06,3.20
2008,10,04,01,07,4.80
2008,10,04,01,08,3.20
2008,10,04,01,09,1.60
2008,10,04,01,10,4.80
2008,10,04,01,11,6.40
2008,10,04,01,12,8.10
2008,10,04,01,13,6.40
2008,10,04,01,14,8.10
2008,10,04,01,15,8.10
2008,10,04,01,16,8.10
2008,10,04,01,17,9.60
2008,10,04,01,18,9.60
2008,10,04,01,19,6.40
2008,10,04,01,20,6.40
2008,10,04,01,21,6.40
2008,10,04,01,22,8.10
2008,10,04,01,23,9.60
2008,10,04,01,24,11.30
2008,10,04,01,25,9.60
2008,10,04,01,26,9.60
2008,10,04,01,27,8.10
2008,10,04,01,28,9.60
2008,10,04,01,29,9.60
2008,10,04,01,30,9.60
2008,10,04,01,31,11.30
2008,10,04,01,32,16.10
2008,10,04,01,33,11.30
2008,10,04,01,34,11.30
2008,10,04,01,35,9.60
2008,10,04,01,36,6.40
2008,10,04,01,37,6.40
2008,10,04,01,38,4.80
2008,10,04,01,39,9.60
2008,10,04,01,40,11.30
2008,10,04,01,41,9.60
2008,10,04,01,42,11.30
2008,10,04,01,43,9.60
2008,10,04,01,44,9.60
2008,10,04,01,45,9.60
2008,10,04,01,46,9.60
2008,10,04,01,47,11.30
2008,10,04,01,48,11.30
2008,10,04,01,49,14.50
2008,10,04,01,50,8.10
2008,10,04,01,51,12.90
2008,10,04,01,52,11.30
2008,10,04,01,53,9.60
2008,10,04,01,54,11.30
2008,10,04,01,55,9.60
2008,10,04,01,56,4.80
2008,10,04,01,57,9.60
2008,10,04,01,58,9.60
2008,10,04,01,59,6.40
2008,10,04,02,00,6.40
2008,10,04,02,01,14.50
2008,10,04,02,02,8.10
2008,10,04,02,03,8.10
2008,10,04,02,04,9.60
2008,10,04,02,05,8.10
2008,10,04,02,06,11.30
2008,10,04,02,07,8.10
2008,10,04,02,08,11.30
2008,10,04,02,09,8.10
2008,10,04,02,10,6.40
2008,10,04,02,11,8.10
2008,10,04,02,12,8.10
2008,10,04,02,13,8.10
2008,10,04,02,14,11.30
2008,10,04,02,15,9.60
2008,10,04,02,16,9.60
2008,10,04,02,17,8.10
2008,10,04,02,18,8.10
2008,10,04,02,19,8.10
2008,10,04,02,20,4.80
2008,10,04,02,21,4.80
2008,10,04,02,22,6.40
2008,10,04,02,23,4.80
2008,10,04,02,24,6.40
2008,10,04,02,25,11.30
2008,10,04,02,26,11.30
2008,10,04,02,27,9.60
2008,10,04,02,28,6.40
2008,10,04,02,29,14.50
2008,10,04,02,30,14.50
2008,10,04,02,31,11.30
2008,10,04,02,32,9.60
2008,10,04,02,33,8.10
2008,10,04,02,34,11.30
2008,10,04,02,35,16.10
2008,10,04,02,36,9.60
2008,10,04,02,37,9.60
2008,10,04,02,38,11.30
2008,10,04,02,39,12.90
2008,10,04,02,40,8.10
2008,10,04,02,41,11.30
2008,10,04,02,42,9.60
2008,10,04,02,43,9.60
2008,10,04,02,44,9.60
2008,10,04,02,45,12.90
2008,10,04,02,46,9.60
2008,10,04,02,47,11.30
2008,10,04,02,48,9.60
2008,10,04,02,49,8.10
2008,10,04,02,50,8.10
2008,10,04,02,51,11.30
2008,10,04,02,52,9.60
2008,10,04,02,53,8.10
2008,10,04,02,54,8.10
2008,10,04,02,55,8.10
2008,10,04,02,56,8.10
2008,10,04,02,57,8.10
2008,10,04,02,58,9.60
2008,10,04,02,59,9.60
2008,10,04,03,00,8.10
2008,10,04,03,01,11.30
2008,10,04,03,02,11.30
2008,10,04,03,03,8.10
2008,10,04,03,04,11.30
2008,10,04,03,05,9.60
2008,10,04,03,06,9.60
2008,10,04,03,07,11.30
2008,10,04,03,08,12.90
2008,10,04,03,09,9.60
2008,10,04,03,10,11.30
2008,10,04,03,11,11.30
2008,10,04,03,12,9.60
2008,10,04,03,13,9.60
2008,10,04,03,14,8.10
2008,10,04,03,15,9.60
2008,10,04,03,16,9.60
2008,10,04,03,17,9.60
2008,10,04,03,18,8.10
2008,10,04,03,19,9.60
2008,10,04,03,20,11.30
2008,10,04,03,21,14.50
2008,10,04,03,22,8.10
2008,10,04,03,23,8.10
2008,10,04,03,24,11.30
2008,10,04,03,25,9.60
2008,10,04,03,26,9.60
2008,10,04,03,27,14.50
2008,10,04,03,28,9.60
2008,10,04,03,29,9.60
2008,10,04,03,30,8.10
2008,10,04,03,31,11.30
2008,10,04,03,32,11.30
2008,10,04,03,33,11.30
2008,10,04,03,34,11.30
2008,10,04,03,35,9.60
2008,10,04,03,36,8.10
2008,10,04,03,37,9.60
2008,10,04,03,38,8.10
2008,10,04,03,39,8.10
2008,10,04,03,40,6.40
2008,10,04,03,41,9.60
2008,10,04,03,42,9.60
2008,10,04,03,43,9.60
2008,10,04,03,44,9.60
2008,10,04,03,45,9.60
2008,10,04,03,46,8.10
2008,10,04,03,47,8.10
2008,10,04,03,48,8.10
2008,10,04,03,49,9.60
2008,10,04,03,50,9.60
2008,10,04,03,51,8.10
2008,10,04,03,52,11.30
2008,10,04,03,53,11.30
2008,10,04,03,54,16.10
2008,10,04,03,55,11.30
2008,10,04,03,56,14.50
2008,10,04,03,57,11.30
2008,10,04,03,58,14.50
2008,10,04,03,59,12.90
2008,10,04,04,00,16.10
2008,10,04,04,01,14.50
2008,10,04,04,02,14.50
2008,10,04,04,03,11.30
2008,10,04,04,04,8.10
2008,10,04,04,05,8.10
2008,10,04,04,06,8.10
2008,10,04,04,07,8.10
2008,10,04,04,08,8.10
2008,10,04,04,09,8.10
2008,10,04,04,10,9.60
2008,10,04,04,11,12.90
2008,10,04,04,12,9.60
2008,10,04,04,13,9.60
2008,10,04,04,14,9.60
2008,10,04,04,15,9.60
2008,10,04,04,16,9.60
2008,10,04,04,17,9.60
2008,10,04,04,18,8.10
2008,10,04,04,19,6.40
2008,10,04,04,20,8.10
2008,10,04,04,21,9.60
2008,10,04,04,22,8.10
2008,10,04,04,23,8.10
2008,10,04,04,24,9.60
2008,10,04,04,25,8.10
2008,10,04,04,26,12.90
2008,10,04,04,27,9.60
2008,10,04,04,28,9.60
2008,10,04,04,29,6.40
2008,10,04,04,30,8.10
2008,10,04,04,31,8.10
2008,10,04,04,32,4.80
2008,10,04,04,33,8.10
2008,10,04,04,34,6.40
2008,10,04,04,35,8.10
2008,10,04,04,36,6.40
2008,10,04,04,37,8.10
2008,10,04,04,38,8.10
2008,10,04,04,39,9.60
2008,10,04,04,40,6.40
2008,10,04,04,41,6.40
2008,10,04,04,42,8.10
2008,10,04,04,43,6.40
2008,10,04,04,44,4.80
2008,10,04,04,45,11.30
2008,10,04,04,46,11.30
2008,10,04,04,47,11.30
2008,10,04,04,48,9.60
2008,10,04,04,49,11.30
2008,10,04,04,50,11.30
2008,10,04,04,51,8.10
2008,10,04,04,52,11.30
2008,10,04,04,53,9.60
2008,10,04,04,54,16.10
2008,10,04,04,55,14.50
2008,10,04,04,56,9.60
2008,10,04,04,57,8.10
2008,10,04,04,58,9.60
2008,10,04,04,59,12.90
2008,10,04,05,00,11.30
2008,10,04,05,01,11.30
2008,10,04,05,02,14.50
2008,10,04,05,03,9.60
2008,10,04,05,04,9.60
2008,10,04,05,05,11.30
2008,10,04,05,06,11.30
2008,10,04,05,07,9.60
2008,10,04,05,08,11.30
2008,10,04,05,09,12.90
2008,10,04,05,10,14.50
2008,10,04,05,11,11.30
2008,10,04,05,12,9.60
2008,10,04,05,13,8.10
2008,10,04,05,14,6.40
2008,10,04,05,15,8.10
2008,10,04,05,16,8.10
2008,10,04,05,17,8.10
2008,10,04,05,18,9.60
2008,10,04,05,19,9.60
2008,10,04,05,20,6.40
2008,10,04,05,21,6.40
2008,10,04,05,22,6.40
2008,10,04,05,23,4.80
2008,10,04,05,24,6.40
2008,10,04,05,25,8.10
2008,10,04,05,26,9.60
2008,10,04,05,27,6.40
2008,10,04,05,28,6.40
2008,10,04,05,29,8.10
2008,10,04,05,30,4.80
2008,10,04,05,31,4.80
2008,10,04,05,32,4.80
2008,10,04,05,33,3.20
2008,10,04,05,34,4.80
2008,10,04,05,35,1.60
2008,10,04,05,36,1.60
2008,10,04,05,37,1.60
2008,10,04,05,38,6.40
2008,10,04,05,39,4.80
2008,10,04,05,40,0.00
2008,10,04,05,41,0.00
2008,10,04,05,42,0.00
2008,10,04,05,43,6.40
2008,10,04,05,44,4.80
2008,10,04,05,45,4.80
2008,10,04,05,46,3.20
2008,10,04,05,47,1.60
2008,10,04,05,48,6.40
2008,10,04,05,49,4.80
2008,10,04,05,50,4.80
2008,10,04,05,51,4.80
2008,10,04,05,52,3.20
2008,10,04,05,53,1.60
2008,10,04,05,54,1.60
2008,10,04,05,55,4.80
2008,10,04,05,56,4.80
2008,10,04,05,57,4.80
2008,10,04,05,58,1.60
2008,10,04,05,59,1.60
2008,10,04,06,00,0.00
2008,10,04,06,01,1.60
2008,10,04,06,02,0.00
2008,10,04,06,03,1.60
2008,10,04,06,04,1.60
2008,10,04,06,05,1.60
2008,10,04,06,06,1.60
2008,10,04,06,07,1.60
2008,10,04,06,08,1.60
2008,10,04,06,09,3.20
2008,10,04,06,10,1.60
2008,10,04,06,11,1.60
2008,10,04,06,12,1.60
2008,10,04,06,13,1.60
2008,10,04,06,14,4.80
2008,10,04,06,15,6.40
2008,10,04,06,16,6.40
2008,10,04,06,17,6.40
2008,10,04,06,18,4.80
2008,10,04,06,19,8.10
2008,10,04,06,20,8.10
2008,10,04,06,21,6.40
2008,10,04,06,22,6.40
2008,10,04,06,23,8.10
2008,10,04,06,24,9.60
2008,10,04,06,25,8.10
2008,10,04,06,26,9.60
2008,10,04,06,27,8.10
2008,10,04,06,28,6.40
2008,10,04,06,29,8.10
2008,10,04,06,30,11.30
2008,10,04,06,31,9.60
2008,10,04,06,32,4.80
2008,10,04,06,33,6.40
2008,10,04,06,34,4.80
2008,10,04,06,35,6.40
2008,10,04,06,36,4.80
2008,10,04,06,37,4.80
2008,10,04,06,38,4.80
2008,10,04,06,39,4.80
2008,10,04,06,40,1.60
2008,10,04,06,41,1.60
2008,10,04,06,42,1.60
2008,10,04,06,43,0.00
2008,10,04,06,44,0.00
2008,10,04,06,45,0.00
2008,10,04,06,46,0.00
2008,10,04,06,47,1.60
2008,10,04,06,48,1.60
2008,10,04,06,49,0.00
2008,10,04,06,50,0.00
2008,10,04,06,51,1.60
2008,10,04,06,52,0.00
2008,10,04,06,53,0.00
2008,10,04,06,54,0.00
2008,10,04,06,55,0.00
2008,10,04,06,56,1.60
2008,10,04,06,57,0.00
2008,10,04,06,58,1.60
2008,10,04,06,59,3.20
2008,10,04,07,00,1.60
2008,10,04,07,01,3.20
2008,10,04,07,02,3.20
2008,10,04,07,03,4.80
2008,10,04,07,04,3.20
2008,10,04,07,05,3.20
2008,10,04,07,06,3.20
2008,10,04,07,07,4.80
2008,10,04,07,08,3.20
2008,10,04,07,09,3.20
2008,10,04,07,10,4.80
2008,10,04,07,11,4.80
2008,10,04,07,12,3.20
2008,10,04,07,13,1.60
2008,10,04,07,14,1.60
2008,10,04,07,15,0.00
2008,10,04,07,16,1.60
2008,10,04,07,17,0.00
2008,10,04,07,18,0.00
2008,10,04,07,19,0.00
2008,10,04,07,20,0.00
2008,10,04,07,21,0.00
2008,10,04,07,22,0.00
2008,10,04,07,23,0.00
2008,10,04,07,24,1.60
2008,10,04,07,25,0.00
2008,10,04,07,26,1.60
2008,10,04,07,27,1.60
2008,10,04,07,28,1.60
2008,10,04,07,29,0.00
2008,10,04,07,30,0.00
2008,10,04,07,31,0.00
2008,10,04,07,32,0.00
2008,10,04,07,33,3.20
2008,10,04,07,34,1.60
2008,10,04,07,35,0.00
2008,10,04,07,36,1.60
2008,10,04,07,37,4.80
2008,10,04,07,38,8.10
2008,10,04,07,39,11.30
2008,10,04,07,40,14.50
2008,10,04,07,41,11.30
2008,10,04,07,42,16.10
2008,10,04,07,43,11.30
2008,10,04,07,44,16.10
2008,10,04,07,45,9.60
2008,10,04,07,46,9.60
2008,10,04,07,47,11.30
2008,10,04,07,48,12.90
2008,10,04,07,49,9.60
2008,10,04,07,50,12.90
2008,10,04,07,51,12.90
2008,10,04,07,52,16.10
2008,10,04,07,53,17.70
2008,10,04,07,54,12.90
2008,10,04,07,55,14.50
2008,10,04,07,56,11.30
2008,10,04,07,57,11.30
2008,10,04,07,58,6.40
2008,10,04,07,59,4.80
2008,10,04,08,00,9.60
2008,10,04,08,01,9.60
2008,10,04,08,02,6.40
2008,10,04,08,03,8.10
2008,10,04,08,04,8.10
2008,10,04,08,05,9.60
2008,10,04,08,06,16.10
2008,10,04,08,07,11.30
2008,10,04,08,08,9.60
2008,10,04,08,09,11.30
2008,10,04,08,10,6.40
2008,10,04,08,11,4.80
2008,10,04,08,12,6.40
2008,10,04,08,13,6.40
2008,10,04,08,14,3.20
2008,10,04,08,15,8.10
2008,10,04,08,16,11.30
2008,10,04,08,17,11.30
2008,10,04,08,18,6.40
2008,10,04,08,19,11.30
2008,10,04,08,20,11.30
2008,10,04,08,21,6.40
2008,10,04,08,22,4.80
2008,10,04,08,23,6.40
2008,10,04,08,24,8.10
2008,10,04,08,25,4.80
2008,10,04,08,26,4.80
2008,10,04,08,27,1.60
2008,10,04,08,28,1.60
2008,10,04,08,29,3.20
2008,10,04,08,30,1.60
2008,10,04,08,31,1.60
2008,10,04,08,32,4.80
2008,10,04,08,33,1.60
2008,10,04,08,34,4.80
2008,10,04,08,35,3.20
2008,10,04,08,36,1.60
2008,10,04,08,37,1.60
2008,10,04,08,38,0.00
2008,10,04,08,39,4.80
2008,10,04,08,40,6.40
2008,10,04,08,41,3.20
2008,10,04,08,42,3.20
2008,10,04,08,43,1.60
2008,10,04,08,44,4.80
2008,10,04,08,45,3.20
2008,10,04,08,46,3.20
2008,10,04,08,47,1.60
2008,10,04,08,48,1.60
2008,10,04,08,49,1.60
2008,10,04,08,50,1.60
2008,10,04,08,51,4.80
2008,10,04,08,52,3.20
2008,10,04,08,53,1.60
2008,10,04,08,54,1.60
2008,10,04,08,55,1.60
2008,10,04,08,56,6.40
2008,10,04,08,57,6.40
2008,10,04,08,58,3.20
2008,10,04,08,59,1.60
2008,10,04,09,00,3.20
2008,10,04,09,01,3.20
2008,10,04,09,02,4.80
2008,10,04,09,03,3.20
2008,10,04,09,04,1.60
2008,10,04,09,05,1.60
2008,10,04,09,06,0.00
2008,10,04,09,07,3.20
2008,10,04,09,08,6.40
2008,10,04,09,09,4.80
2008,10,04,09,10,1.60
2008,10,04,09,11,4.80
2008,10,04,09,12,3.20
2008,10,04,09,13,3.20
2008,10,04,09,14,3.20
2008,10,04,09,15,3.20
2008,10,04,09,16,4.80
2008,10,04,09,17,4.80
2008,10,04,09,18,3.20
2008,10,04,09,19,3.20
2008,10,04,09,20,1.60
2008,10,04,09,21,1.60
2008,10,04,09,22,1.60
2008,10,04,09,23,1.60
2008,10,04,09,24,3.20
2008,10,04,09,25,4.80
2008,10,04,09,26,1.60
2008,10,04,09,27,3.20
2008,10,04,09,28,4.80
2008,10,04,09,29,3.20
2008,10,04,09,30,6.40
2008,10,04,09,31,1.60
2008,10,04,09,32,1.60
2008,10,04,09,33,1.60
2008,10,04,09,34,3.20
2008,10,04,09,35,0.00
2008,10,04,09,36,1.60
2008,10,04,09,37,0.00
2008,10,04,09,38,3.20
2008,10,04,09,39,3.20
2008,10,04,09,40,0.00
2008,10,04,09,41,4.80
2008,10,04,09,42,1.60
2008,10,04,09,43,1.60
2008,10,04,09,44,0.00
2008,10,04,09,45,0.00
2008,10,04,09,46,4.80
2008,10,04,09,47,3.20
2008,10,04,09,48,0.00
2008,10,04,09,49,0.00
2008,10,04,09,50,1.60
2008,10,04,09,51,0.00
2008,10,04,09,52,1.60
2008,10,04,09,53,3.20
2008,10,04,09,54,1.60
2008,10,04,09,55,1.60
2008,10,04,09,56,1.60
2008,10,04,09,57,3.20
2008,10,04,09,58,3.20
2008,10,04,09,59,3.20
2008,10,04,10,00,6.40
2008,10,04,10,01,4.80
2008,10,04,10,02,6.40
2008,10,04,10,03,6.40
2008,10,04,10,04,3.20
2008,10,04,10,05,6.40
2008,10,04,10,06,9.60
2008,10,04,10,07,9.60
2008,10,04,10,08,8.10
2008,10,04,10,09,9.60
2008,10,04,10,10,9.60
2008,10,04,10,11,9.60
2008,10,04,10,12,11.30
2008,10,04,10,13,9.60
2008,10,04,10,14,8.10
2008,10,04,10,15,11.30
2008,10,04,10,16,11.30
2008,10,04,10,17,9.60
2008,10,04,10,18,9.60
2008,10,04,10,19,6.40
2008,10,04,10,20,9.60
2008,10,04,10,21,8.10
2008,10,04,10,22,6.40
2008,10,04,10,23,8.10
2008,10,04,10,24,14.50
2008,10,04,10,25,9.60
2008,10,04,10,26,8.10
2008,10,04,10,27,3.20
2008,10,04,10,28,3.20
2008,10,04,10,29,3.20
2008,10,04,10,30,6.40
2008,10,04,10,31,6.40
2008,10,04,10,32,8.10
2008,10,04,10,33,11.30
2008,10,04,10,34,6.40
2008,10,04,10,35,11.30
2008,10,04,10,36,11.30
2008,10,04,10,37,16.10
2008,10,04,10,38,4.80
2008,10,04,10,39,4.80
2008,10,04,10,40,8.10
2008,10,04,10,41,8.10
2008,10,04,10,42,6.40
2008,10,04,10,43,9.60
2008,10,04,10,44,6.40
2008,10,04,10,45,9.60
2008,10,04,10,46,4.80
2008,10,04,10,47,4.80
2008,10,04,10,48,4.80
2008,10,04,10,49,4.80
2008,10,04,10,50,12.90
2008,10,04,10,51,8.10
2008,10,04,10,52,12.90
2008,10,04,10,53,16.10
2008,10,04,10,54,9.60
2008,10,04,10,55,14.50
2008,10,04,10,56,6.40
2008,10,04,10,57,16.10
2008,10,04,10,58,16.10
2008,10,04,10,59,17.70
2008,10,04,11,00,11.30
2008,10,04,11,01,9.60
2008,10,04,11,02,6.40
2008,10,04,11,03,8.10
2008,10,04,11,04,9.60
2008,10,04,11,05,8.10
2008,10,04,11,06,6.40
2008,10,04,11,07,11.30
2008,10,04,11,08,14.50
2008,10,04,11,09,9.60
2008,10,04,11,10,14.50
2008,10,04,11,11,16.10
2008,10,04,11,12,9.60
2008,10,04,11,13,12.90
2008,10,04,11,14,8.10
2008,10,04,11,15,9.60
2008,10,04,11,16,22.50
2008,10,04,11,17,16.10
2008,10,04,11,18,16.10
2008,10,04,11,19,16.10
2008,10,04,11,20,14.50
2008,10,04,11,21,19.30
2008,10,04,11,22,17.70
2008,10,04,11,23,17.70
2008,10,04,11,24,17.70
2008,10,04,11,25,14.50
2008,10,04,11,26,14.50
2008,10,04,11,27,11.30
2008,10,04,11,28,11.30
2008,10,04,11,29,16.10
2008,10,04,11,30,9.60
2008,10,04,11,31,9.60
2008,10,04,11,32,16.10
2008,10,04,11,33,8.10
2008,10,04,11,34,6.40
2008,10,04,11,35,4.80
2008,10,04,11,36,4.80
2008,10,04,11,37,14.50
2008,10,04,11,38,9.60
2008,10,04,11,39,16.10
2008,10,04,11,40,9.60
2008,10,04,11,41,9.60
2008,10,04,11,42,9.60
2008,10,04,11,43,12.90
2008,10,04,11,44,6.40
2008,10,04,11,45,14.50
2008,10,04,11,46,9.60
2008,10,04,11,47,8.10
2008,10,04,11,48,6.40
2008,10,04,11,49,9.60
2008,10,04,11,50,11.30
2008,10,04,11,51,8.10
2008,10,04,11,52,8.10
2008,10,04,11,53,9.60
2008,10,04,11,54,8.10
2008,10,04,11,55,4.80
2008,10,04,11,56,9.60
2008,10,04,11,57,6.40
2008,10,04,11,58,14.50
2008,10,04,11,59,9.60
2008,10,04,12,00,8.10
2008,10,04,12,01,16.10
2008,10,04,12,02,16.10
2008,10,04,12,03,9.60
2008,10,04,12,04,8.10
2008,10,04,12,05,3.20
2008,10,04,12,06,8.10
2008,10,04,12,07,6.40
2008,10,04,12,08,8.10
2008,10,04,12,09,8.10
2008,10,04,12,10,6.40
2008,10,04,12,11,16.10
2008,10,04,12,12,16.10
2008,10,04,12,13,8.10
2008,10,04,12,14,8.10
2008,10,04,12,15,6.40
2008,10,04,12,16,11.30
2008,10,04,12,17,6.40
2008,10,04,12,18,12.90
2008,10,04,12,19,8.10
2008,10,04,12,20,8.10
2008,10,04,12,21,6.40
2008,10,04,12,22,8.10
2008,10,04,12,23,8.10
2008,10,04,12,24,11.30
2008,10,04,12,25,11.30
2008,10,04,12,26,14.50
2008,10,04,12,27,11.30
2008,10,04,12,28,6.40
2008,10,04,12,29,8.10
2008,10,04,12,30,9.60
2008,10,04,12,31,8.10
2008,10,04,12,32,9.60
2008,10,04,12,33,8.10
2008,10,04,12,34,8.10
2008,10,04,12,35,6.40
2008,10,04,12,36,8.10
2008,10,04,12,37,9.60
2008,10,04,12,38,9.60
2008,10,04,12,39,11.30
2008,10,04,12,40,11.30
2008,10,04,12,41,9.60
2008,10,04,12,42,11.30
2008,10,04,12,43,11.30
2008,10,04,12,44,9.60
2008,10,04,12,45,9.60
2008,10,04,12,46,8.10
2008,10,04,12,47,16.10
2008,10,04,12,48,14.50
2008,10,04,12,49,8.10
2008,10,04,12,50,11.30
2008,10,04,12,51,17.70
2008,10,04,12,52,12.90
2008,10,04,12,53,14.50
2008,10,04,12,54,12.90
2008,10,04,12,55,12.90
2008,10,04,12,56,11.30
2008,10,04,12,57,8.10
2008,10,04,12,58,4.80
2008,10,04,12,59,9.60
2008,10,04,13,00,11.30
2008,10,04,13,01,8.10
2008,10,04,13,02,4.80
2008,10,04,13,03,4.80
2008,10,04,13,04,8.10
2008,10,04,13,05,8.10
2008,10,04,13,06,4.80
2008,10,04,13,07,8.10
2008,10,04,13,08,4.80
2008,10,04,13,09,9.60
2008,10,04,13,10,6.40
2008,10,04,13,11,8.10
2008,10,04,13,12,8.10
2008,10,04,13,13,6.40
2008,10,04,13,14,4.80
2008,10,04,13,15,6.40
2008,10,04,13,16,9.60
2008,10,04,13,17,8.10
2008,10,04,13,18,6.40
2008,10,04,13,19,6.40
2008,10,04,13,20,6.40
2008,10,04,13,21,6.40
2008,10,04,13,22,6.40
2008,10,04,13,23,8.10
2008,10,04,13,24,11.30
2008,10,04,13,25,9.60
2008,10,04,13,26,9.60
2008,10,04,13,27,11.30
2008,10,04,13,28,14.50
2008,10,04,13,29,9.60
2008,10,04,13,30,11.30
2008,10,04,13,31,9.60
2008,10,04,13,32,8.10
2008,10,04,13,33,8.10
2008,10,04,13,34,4.80
2008,10,04,13,35,8.10
2008,10,04,13,36,6.40
2008,10,04,13,37,4.80
2008,10,04,13,38,4.80
2008,10,04,13,39,6.40
2008,10,04,13,40,8.10
2008,10,04,13,41,3.20
2008,10,04,13,42,4.80
2008,10,04,13,43,4.80
2008,10,04,13,44,8.10
2008,10,04,13,45,6.40
2008,10,04,13,46,4.80
2008,10,04,13,47,6.40
2008,10,04,13,48,3.20
2008,10,04,13,49,3.20
2008,10,04,13,50,8.10
2008,10,04,13,51,6.40
2008,10,04,13,52,8.10
2008,10,04,13,53,9.60
2008,10,04,13,54,12.90
2008,10,04,13,55,11.30
2008,10,04,13,56,8.10
2008,10,04,13,57,8.10
2008,10,04,13,58,9.60
2008,10,04,13,59,9.60
2008,10,04,14,00,8.10
2008,10,04,14,01,6.40
2008,10,04,14,02,6.40
2008,10,04,14,03,6.40
2008,10,04,14,04,6.40
2008,10,04,14,05,9.60
2008,10,04,14,06,6.40
2008,10,04,14,07,6.40
2008,10,04,14,08,6.40
2008,10,04,14,09,8.10
2008,10,04,14,10,4.80
2008,10,04,14,11,9.60
2008,10,04,14,12,8.10
2008,10,04,14,13,9.60
2008,10,04,14,14,9.60
2008,10,04,14,15,9.60
2008,10,04,14,16,9.60
2008,10,04,14,17,9.60
2008,10,04,14,18,9.60
2008,10,04,14,19,9.60
2008,10,04,14,20,6.40
2008,10,04,14,21,8.10
2008,10,04,14,22,8.10
2008,10,04,14,23,9.60
2008,10,04,14,24,3.20
2008,10,04,14,25,8.10
2008,10,04,14,26,4.80
2008,10,04,14,27,6.40
2008,10,04,14,28,8.10
2008,10,04,14,29,4.80
2008,10,04,14,30,4.80
2008,10,04,14,31,4.80
2008,10,04,14,32,6.40
2008,10,04,14,33,4.80
2008,10,04,14,34,4.80
2008,10,04,14,35,4.80
2008,10,04,14,36,9.60
2008,10,04,14,37,9.60
2008,10,04,14,38,4.80
2008,10,04,14,39,4.80
2008,10,04,14,40,6.40
2008,10,04,14,41,11.30
2008,10,04,14,42,9.60
2008,10,04,14,43,12.90
2008,10,04,14,44,11.30
2008,10,04,14,45,9.60
2008,10,04,14,46,6.40
2008,10,04,14,47,11.30
2008,10,04,14,48,8.10
2008,10,04,14,49,6.40
2008,10,04,14,50,8.10
2008,10,04,14,51,8.10
2008,10,04,14,52,9.60
2008,10,04,14,53,8.10
2008,10,04,14,54,9.60
2008,10,04,14,55,14.50
2008,10,04,14,56,12.90
2008,10,04,14,57,11.30
2008,10,04,14,58,11.30
2008,10,04,14,59,9.60
2008,10,04,15,00,16.10
2008,10,04,15,01,14.50
2008,10,04,15,02,11.30
2008,10,04,15,03,11.30
2008,10,04,15,04,16.10
2008,10,04,15,05,12.90
2008,10,04,15,06,16.10
2008,10,04,15,07,11.30
2008,10,04,15,08,8.10
2008,10,04,15,09,9.60
2008,10,04,15,10,9.60
2008,10,04,15,11,19.30
2008,10,04,15,12,19.30
2008,10,04,15,13,17.70
2008,10,04,15,14,19.30
2008,10,04,15,15,12.90
2008,10,04,15,16,14.50
2008,10,04,15,17,11.30
2008,10,04,15,18,11.30
2008,10,04,15,19,22.50
2008,10,04,15,20,24.20
2008,10,04,15,21,19.30
2008,10,04,15,22,11.30
2008,10,04,15,23,25.70
2008,10,04,15,24,17.70
2008,10,04,15,25,17.70
2008,10,04,15,26,14.50
2008,10,04,15,27,22.50
2008,10,04,15,28,17.70
2008,10,04,15,29,17.70
2008,10,04,15,30,9.60
2008,10,04,15,31,20.90
2008,10,04,15,32,16.10
2008,10,04,15,33,16.10
2008,10,04,15,34,19.30
2008,10,04,15,35,16.10
2008,10,04,15,36,17.70
2008,10,04,15,37,22.50
2008,10,04,15,38,11.30
2008,10,04,15,39,19.30
2008,10,04,15,40,16.10
2008,10,04,15,41,9.60
2008,10,04,15,42,11.30
2008,10,04,15,43,9.60
2008,10,04,15,44,8.10
2008,10,04,15,45,20.90
2008,10,04,15,46,35.40
2008,10,04,15,47,25.70
2008,10,04,15,48,32.20
2008,10,04,15,49,27.40
2008,10,04,15,50,29.00
2008,10,04,15,51,20.90
2008,10,04,15,52,30.60
2008,10,04,15,53,17.70
2008,10,04,15,54,8.10
2008,10,04,15,55,6.40
2008,10,04,15,56,8.10
2008,10,04,15,57,16.10
2008,10,04,15,58,17.70
2008,10,04,15,59,24.20
2008,10,04,16,00,19.30
2008,10,04,16,01,29.00
2008,10,04,16,02,24.20
2008,10,04,16,03,17.70
2008,10,04,16,04,29.00
2008,10,04,16,05,38.60
2008,10,04,16,06,22.50
2008,10,04,16,07,30.60
2008,10,04,16,08,30.60
2008,10,04,16,09,25.70
2008,10,04,16,10,25.70
2008,10,04,16,11,37.00
2008,10,04,16,12,38.60
2008,10,04,16,13,41.80
2008,10,04,16,14,35.40
2008,10,04,16,15,29.00
2008,10,04,16,16,40.20
2008,10,04,16,17,35.40
2008,10,04,16,18,35.40
2008,10,04,16,19,40.20
2008,10,04,16,20,33.80
2008,10,04,16,21,33.80
2008,10,04,16,22,20.90
2008,10,04,16,23,22.50
2008,10,04,16,24,17.70
2008,10,04,16,25,24.20
2008,10,04,16,26,32.20
2008,10,04,16,27,32.20
2008,10,04,16,28,25.70
2008,10,04,16,29,24.20
2008,10,04,16,30,30.60
2008,10,04,16,31,22.50
2008,10,04,16,32,56.30
2008,10,04,16,33,43.50
2008,10,04,16,34,33.80
2008,10,04,16,35,32.20
2008,10,04,16,36,35.40
2008,10,04,16,37,41.80
2008,10,04,16,38,45.10
2008,10,04,16,39,29.00
2008,10,04,16,40,22.50
2008,10,04,16,41,14.50
2008,10,04,16,42,29.00
2008,10,04,16,43,29.00
2008,10,04,16,44,45.10
2008,10,04,16,45,33.80
2008,10,04,16,46,27.40
2008,10,04,16,47,38.60
2008,10,04,16,48,43.50
2008,10,04,16,49,45.10
2008,10,04,16,50,27.40
2008,10,04,16,51,40.20
2008,10,04,16,52,37.00
2008,10,04,16,53,37.00
2008,10,04,16,54,32.20
2008,10,04,16,55,35.40
2008,10,04,16,56,20.90
2008,10,04,16,57,27.40
2008,10,04,16,58,30.60
2008,10,04,16,59,27.40
2008,10,04,17,00,48.30
2008,10,04,17,01,33.80
2008,10,04,17,02,33.80
2008,10,04,17,03,25.70
2008,10,04,17,04,46.70
2008,10,04,17,05,53.10
2008,10,04,17,06,33.80
2008,10,04,17,07,29.00
2008,10,04,17,08,40.20
2008,10,04,17,09,35.40
2008,10,04,17,10,37.00
2008,10,04,17,11,29.00
2008,10,04,17,12,33.80
2008,10,04,17,13,32.20
2008,10,04,17,14,29.00
2008,10,04,17,15,33.80
2008,10,04,17,16,35.40
2008,10,04,17,17,37.00
2008,10,04,17,18,27.40
2008,10,04,17,19,30.60
2008,10,04,17,20,27.40
2008,10,04,17,21,29.00
2008,10,04,17,22,32.20
2008,10,04,17,23,33.80
2008,10,04,17,24,22.50
2008,10,04,17,25,22.50
2008,10,04,17,26,16.10
2008,10,04,17,27,20.90
2008,10,04,17,28,33.80
2008,10,04,17,29,30.60
2008,10,04,17,30,27.40
2008,10,04,17,31,27.40
2008,10,04,17,32,25.70
2008,10,04,17,33,32.20
2008,10,04,17,34,35.40
2008,10,04,17,35,17.70
2008,10,04,17,36,25.70
2008,10,04,17,37,22.50
2008,10,04,17,38,19.30
2008,10,04,17,39,24.20
2008,10,04,17,40,22.50
2008,10,04,17,41,16.10
2008,10,04,17,42,20.90
2008,10,04,17,43,22.50
2008,10,04,17,44,20.90
2008,10,04,17,45,25.70
2008,10,04,17,46,20.90
2008,10,04,17,47,25.70
2008,10,04,17,48,27.40
2008,10,04,17,49,20.90
2008,10,04,17,50,20.90